Showing default

BEIDOU 3G1, 43683

Orbit data source: Space-Track

BEIDOU 3G1, 43683 is a payload satellite owned by CNSA (CN) in GEO that was launched on Thu, 01 Nov 2018 UTC via a CHANG ZHENG 3B launch vehicle from the Xichang Space Center, China (XSC). Payloads include a variety of satellites, spacecraft, and rockets equipped with specific instruments for various scientific and technological missions. These include communications satellites like Starlink; space stations such as the ISS; scientific satellites like the Hubble; Earth observation satellites from companies like Planet Labs, Umbra, and HawkEye 360; GPS; miniature CubeSats for education and research; and military/defense satellites.

Not visible in the next 10 days
BEIDOU 3G1 details
Identifier
43683, 2018-085A
Orbit
GEO
Last TLE update8 hours ago
Origin
Flag of CNCNSA (CN / PRC)
ManufacturerCAST
MissionOperational Defense Navigation
Bus & MotorDFH-3B, FY-25
Mass~3,060 kg wet, 1,700 kg dry
Launch date (UTC)
2018-11-01 (6 years ago)
Launch vehicle
CHANG ZHENG 3B
Launch site
Xichang Space Center, China (XSC)
Object type
Payload
Rocket body
Debris
Shape & HBRBox + 2 Pan, 18 m
Radar Cross Section13.998 m², Large (>1 m²)

Expand to show TLE details & history

TLE from 8 hours ago
0 BEIDOU 3G1
1 43683U 18085A   24346.55006418 -.00000262  00000-0  00000-0 0  9995
2 43683   2.6315 103.3820 0001699  66.2360 249.1690  1.00274611 22511
Epoch: 2024-12-11T13:12Z
Definitive object data (Epoch: 2024-12-11T13:12:05.545Z)
Latitude-1.82643°
Longitude140.01992°
Altitude35,788.1 km
Speed3.075 km/s
True Right ascension03h 55m 08s
True Declination-1° 49' 28"
Sunlit
Object was in daylight at TLE epoch
Visualization TLE readout
Latitude2.57922°
Longitude-95.90242°
Altitude35,778.096 km
Speed3.075 km/s
Apparent Right ascension11h 48m 28s
Apparent Declination-2° 48' 20"
Sunlit
Object is in daylight
Visualization observer readout
Local Sidereal Time19:50:57
Azimuth288.578° WNW
Elevation-24.935°
Doppler factor1
Orbital elements
Apogee altitude35,794.034 km
Perigee altitude35,779.706 km
Semi-major axis42,165.007 km
Eccentricity0.0001699
Inclination2.6315°
RAAN103.382°
Arg. of periapsis66.236°
True anomaly249.1508°
Mean anomaly249.169°
Eccentric anomaly249.1599°
Mean motion0.25068 °/min
BSTARUnknown
Orbital period1436.11 mins
Loading historical data...
43683 neighbors
Authenticating...
Loading maneuver chart data...
Loading historical data...
Loading historical data...
Loading historical data...
Loading historical data...
Loading historical data...
Loading historical data...
Loading historical data...
Other satellites on launch #85 in the year 2018 (2018-11-01 UTC)

BEIDOU 3G1 Visibility forecast

Observer location: undefined°, undefined

BEIDOU 3G1 is not visible in the next 10 days
Span
Click to sort rows by Start time (UTC) header in descending order
Start Az.
Max El. time (UTC)
Max El. Az.
Max El.
End time (UTC)
End Az.
|